English version (google)  Retour à l'accueil Ecrire à l'auteur du site Runraid : Michel Jourdan


 Visitez La Boutique 



Les prochaines courses


Les derniers résultats

cliquez pour visualiser la page complète relatant la chronologie des éruptions du Piton de la Fournaise
éruptions Piton de la Fournaise


Ile de La Réunion

 Diagonale des Fous 

Ecrire au créateur du site : Michel Jourdan
Contact


2019-04-28 - Trail des Balcons d'Azur - TBA 47 km

Pour consulter le palmarès d'un coureur, un clic sur son nom !

Vous avez des remarques, corrections, ... sur ces résultats , un clic sur --> pour me transmettre toute information concernant les classements


Trail des Balcons d'Azur - TBA 47 km - 2019 : classement des 331 finishers
Place Nom Temps Cat. Club Sexe Clt/cat.
Place Nom Temps Cat. Club Sexe Clt/cat.
1 Debette Florian 04:06:06 M23 M 0
2 Poesy Sebastien 04:10:39 M23 Club des Sports Valberg M 0
3 Roze Thomas 04:17:20 M23 Courir A Poisy M 0
4 Dubois Cedrick 04:26:51 M40 M 0
5 Greppi Ludovic 04:29:15 M23 M 0
6 Suppi Laurent 04:34:04 M40 Endurance Shop Rennes ... M 0
7 Lacote Germain 04:43:37 M23 Organicoach M 0
8 Gougeon David 04:44:01 M23 Normandie Independante M 0
9 Proverbio Vincent 04:47:05 M35 Vesubie Trail Club 6 M 0
10 Gauthier Emmanuel 04:50:30 M35 M 0
11 Gil Samuel 04:53:31 M35 M 0
12 Broglio Benjamin 04:54:41 M35 Amslf/Oxubi M 0
13 Oehler Jonathan 04:56:38 M23 Sapeurs Pompiers Monaco M 0
14 Barone Anthony 05:03:00 M23 M 0
15 Agnona Franck 05:10:50 M40 Team 6 M 0
16 Gournay Stephane 05:12:06 M50 Tende Sport Nature 6 M 0
17 Fostinelli Philippe 05:12:32 M35 M 0
18 Joly Testault Marion 05:12:37 W23 Courir EN Pays de Grasse F 1ere F 0
19 Outrebon Bastien 05:17:29 M40 M 0
20 Jeannin Matthieu 05:17:43 MU23 M 0
21 Chambon Michael 05:20:27 M40 M 0
22 Pettelot Fabien 05:21:48 M35 M 0
23 Cury Fabrice 05:23:17 M35 M 0
24 Barattero Regis 05:25:04 M40 Smac M 0
25 Triscornia David 05:25:48 M40 Amadeus M 0
26 Journet Theo 05:26:21 MU23 M 0
27 Bernard Olivier 05:27:14 M23 M 0
28 Le Mouel Cedric 05:29:04 MU23 Polytechnique Raid 17 M 0
29 Bosse Nicolas 05:30:00 M23 M 0
30 Rolin Roger 05:30:51 M50 M 0
31 Gobert Robin 05:31:24 MU23 M 0
32 Girard Emmanuel 05:32:13 M35 M 0
33 Peuvot Eric 05:35:05 M45 M 0
34 Boutherin David 05:35:29 M35 Team Cimalp M 0
35 Droulez Franck 05:40:10 M50 Usson Sport Nature M 0
36 Jacquot Thomas 05:40:17 M40 M 0
37 Barone Jean Michel 05:41:00 M55 Trail Athlitude Cuers M 0
38 Vasile Marian 05:42:17 M40 Sportguru Racing Team M 0
39 Lacroix Thomas 05:42:41 M23 M 0
40 Teck Joel 05:43:10 M23 M 0
41 Viano Cedric 05:43:53 M40 M 0
42 Gros Frederic 05:44:45 M45 M 0
43 Daniel Simon 05:44:52 M23 M 0
44 Reynard Oliver 05:44:54 M23 M 0
45 Jacques Karyna 05:45:59 W40 USt Courir ? Saint Tropez F 2 F 0
46 Poittevin Matthieu 05:46:50 M45 ESL Francheville M 0
47 Pastor Alexandre 05:47:33 M35 M 0
48 Renard Francois 05:47:59 M35 Team 3B M 0
49 Collon Laetitia 05:48:45 W23 F 3 F 0
50 Cappadona Thierry 05:48:52 M35 M 0
51 Damour Pascal 05:54:47 M50 Cevennes Trail Club M 0
52 Gervais David 05:55:06 M45 M 0
53 Lejard Kevin 05:55:30 M35 Lfsn M 0
54 Chabal David 05:56:12 M35 VTT Sport Mandelieu M 0
55 Pithon Geoffroy 05:57:23 M23 M 0
56 Janer Jacques 05:58:06 M23 M 0
57 Lalevee Gerald 05:58:08 M45 M 0
58 Garnier Vincent 05:59:55 M23 M 0
59 Begne Florian 06:00:07 M23 M 0
60 Yapoudjian Alice 06:00:50 W40 Team Regvs F 4 F 0
61 Hurel Maxime 06:00:58 M23 M 0
62 Krausse Bettina 06:01:57 W23 F 5 F 0
63 Aparicio Marc 06:02:18 M35 M 0
64 Commette Pierre 06:03:09 M45 M 0
65 Balluais Nicolas 06:04:55 M45 Amadeus M 0
66 Quetier Brice 06:06:03 M23 M 0
67 Nucciarelli Cyrille 06:06:46 M35 AC Valbonne M 0
68 Desmarest David 06:07:34 M45 M 0
69 Delagnes Yvan 06:07:35 M40 M 0
70 Kusalik Patrice 06:07:48 M50 M 0
71 Fuseau Clement 06:08:35 M23 M 0
72 Trolio Ludovic 06:09:40 M40 M 0
73 Batard Antoine 06:10:10 M23 M 0
74 Gabin Julien 06:11:32 M35 M 0
75 Teyssier Remi 06:13:03 M35 ARM M 0
76 Chambonnet Mickael 06:13:04 M23 M 0
77 Hamon Yann 06:14:37 M40 Thales Alenia Space M 0
78 Hapdey Richard 06:15:04 M35 M 0
79 Sitjas Olivier 06:16:26 M45 M 0
80 Douheret Arnaud 06:16:29 M45 M 0
81 Lebrun Laurent 06:17:18 M23 M 0
82 Maigre Patrick 06:17:27 M45 M 0
83 Lachoix Julien 06:17:38 M23 M 0
84 Masson Valerie 06:17:52 W45 F 6 F 0
85 Sans Laurent 06:17:52 M45 M 0
86 Rousset Olive 06:18:37 M40 M 0
87 Debray Damien 06:20:02 M23 Thales Alenia Space M 0
88 Beranger Christophe 06:20:30 M45 M 0
89 Le Deunff Erven 06:20:35 M45 M 0
90 Palliere Augustin 06:21:19 M23 M 0
91 Bignot Martin 06:21:28 M35 M 0
92 Mouchart Aurelien 06:21:34 M23 M 0
93 Guibert Fabrice 06:22:54 M45 Thales Alenia Space M 0
94 Benoist Benjamin 06:23:34 M35 M 0
95 Fages Hugo 06:23:39 MU23 M 0
96 Lothe Gregoire 06:23:39 MU23 Polytechnique M 0
97 Belnet Lionel 06:24:23 M40 M 0
98 Scandola Christophe 06:24:52 M35 M 0
99 Martin Fabrice 06:25:10 M40 M 0
100 Galant Sebastien 06:25:27 M40 M 0
101 Sita Andrea 06:25:34 M23 Thales Alenia Space M 0
102 Graux Kevin 06:25:53 M35 M 0
103 Zyla Arnaud 06:26:41 M35 Pole Sante Saint Jean M 0
104 Weber Jean 06:27:47 M50 M 0
105 Pithon Gregoire 06:27:52 M23 M 0
106 Manas Florent 06:28:30 M23 Bacchus Trail M 0
107 Mouren Renaud 06:28:31 M45 Bacchus Trail M 0
108 Marino Bastien 06:28:34 M23 M 0
109 Bercy Nicolas 06:28:52 M23 M 0
110 Tissot Baptiste 06:29:22 M23 Amadeus M 0
111 Priarone Jeremie 06:29:41 M23 M 0
112 Marzec Michal 06:30:11 M35 Zako'Pain M 0
113 Kern Benjamin 06:30:16 M23 M 0
114 Saffioti Christophe 06:32:50 M23 M 0
115 Chapus Olivier 06:33:01 M50 M 0
116 Rossi Adrien 06:33:19 M23 M 0
117 Dompnier Remi 06:33:19 M23 M 0
118 Barnier Marvin 06:33:20 M23 M 0
119 Maillard Francois 06:33:51 M35 M 0
120 Maraine Annie 06:34:14 W35 F 7 F 0
121 Chollet Matthys Pascale 06:34:15 W40 F 8 F 0
122 Gouix Olivier 06:34:27 M45 M 0
123 Scordia Remi 06:34:59 M23 Interparking M 0
124 Arnaud Matthieu 06:34:59 M23 M 0
125 Maurat Stephane 06:35:25 M40 M 0
126 Olivier Francoise 06:35:57 W45 F 9 F 0
127 Dussaigne Maxime 06:36:24 M23 Saint Raphael Triathlon M 0
128 Francois Victor 06:36:33 MU23 Raid X 2017 M 0
129 Brulard Marc 06:36:44 M23 Space Runners M 0
130 Maximilien Dorothee 06:37:17 W50 F 10 F 0
131 Monnier Pierre Arnaud 06:37:17 M45 LA Legende du Graoully M 0
132 Roucou Jeremy 06:37:39 M23 M 0
133 Senechal Pascal 06:37:45 M45 M 0
134 Maurice Thierry 06:38:40 M55 Triathlo du Pays Grassois M 0
135 Hervouet Ivan 06:38:48 M45 M 0
136 Scarpa Elena Lucia 06:39:14 W23 ASD Podistica Peralto ... F 11 F 0
137 Neyrat Bastien 06:39:16 M40 NEM Training M 0
138 Morvan Yan 06:40:00 M40 Amadeus M 0
139 Parent Sebastien 06:40:25 M40 KDE M 0
140 Dechaine Loic 06:40:38 M35 M 0
141 Menguy Valerie 06:40:43 W50 Amslf/Oxubii F 12 F 0
142 Ferrand Herve 06:41:34 M50 Courir EN Pays de Grasse M 0
143 Lai Eric 06:42:25 M50 Trail Club Ollioules M 0
144 Arnoult Julie 06:42:58 W35 F 13 F 0
145 Gourdol Natacha 06:43:47 W40 F 14 F 0
146 Gazelle Eric 06:43:52 M50 Team Trail Cote Bleue ... M 0
147 Perez Antoine 06:44:12 M23 M 0
148 Delague Jorik 06:44:31 M50 M 0
149 Recke Hanno 06:44:34 M35 Lehrter SV Triathlon M 0
150 Rapp Jocelyn 06:45:18 M40 M 0
151 Theissen Alexandre 06:45:28 M45 M 0
152 Marino Richard 06:45:29 M45 Langue Agile M 0
153 Gasque Marc 06:46:08 M50 TAC M 0
154 Arnaud Benoit 06:46:09 M45 Mandelieu la Napoule AC M 0
155 Palenzuela Jeremy 06:46:46 M23 M 0
156 Larose Geraldine 06:46:55 W45 Smac F 15 F 0
157 Ramara Henri Claude 06:47:24 M40 M 0
158 Benitez Xavier 06:47:25 M40 Macadam CAP D'AIL M 0
159 Cortesogno David 06:47:52 M45 Fadaboom M 0
160 Zanella Thierry 06:49:44 M60 Spiridon CA M 0
161 Hoffer Jean Bernard 06:49:52 M60 M 0
162 Decamps Frederic 06:50:19 M40 M 0
163 Rami Laurent 06:50:19 M40 M 0
164 Faure Sebastien 06:50:26 M35 Airbus Running M 0
165 Desbrosses Yves 06:50:35 M60 Creusot Velo Sport M 0
166 Artaud Philippe 06:51:13 M55 M 0
167 Chambefort Marc 06:51:13 M55 M 0
168 Peres Kevin 06:51:28 M23 M 0
169 Montarnal Yohan 06:52:38 M35 M 0
170 Costa Jean Philippe 06:53:11 M45 M 0
171 Corso Jeremy 06:53:13 M35 Activ?Sport Antibes M 0
172 Chretien Aurelia 06:53:13 W23 F 16 F 0
173 Mariette Joel 06:55:29 M65 M 0
174 Gros Laurent 06:55:38 M50 Amicale St. Gely M 0
175 Besqueut Yann 06:55:48 M23 M 0
176 Grobelny Benjamin 06:56:52 M35 M 0
177 Peiret Frederic 06:58:28 M45 M 0
178 Sovilla Luca 06:58:52 M40 M 0
179 Fantuz Stefano 06:58:52 M23 M 0
180 Albanese Andrea 06:58:52 M40 Mandelieu la Napoule AC M 0
181 Houle Nicolas 07:00:29 M23 M 0
182 Berthier Ludovic 07:00:39 M35 M 0
183 Dupre Marion 07:01:09 W35 Falicoun Trail Plaisir F 17 F 0
184 Colombo Thomas 07:01:21 M35 M 0
185 Franchi Jean Francois 07:05:05 M50 les Pieds Tanques la C... M 0
186 Stichelbaut Pierre 07:05:20 M45 Dinard Running M 0
187 Lousse Geoffroy 07:08:25 M40 Amadeus M 0
188 Fontenoy Fabrice 07:08:50 M23 M 0
189 Waultier Sabine 07:10:53 W40 F 18 F 0
190 Jambeau Etienne 07:11:10 M50 Chicken Runners M 0
191 Guirard Thomas 07:11:49 M23 M 0
192 de La Breteque Christophe 07:12:16 M45 Langue Agile M 0
193 Salmon Mathieu 07:12:47 MU23 M 0
194 Cintas Thibault 07:12:48 M23 M 0
195 Pierre Raphael 07:12:50 M35 Usta M 0
196 Duprey Eric 07:12:52 M50 Vaux LE Penil Athletisme M 0
197 Medjroubi Asma 07:15:53 W23 F 19 F 0
198 Charlier Marie Noelle 07:16:20 W60 Gwadarun Transka F 20 F 0
199 Biguet Jean Francis 07:17:34 M45 M 0
200 Vanheems Marc Antoine 07:17:35 M35 Proxi-ME M 0
201 Theilliere Christian 07:18:04 M55 M 0
202 Calixte Jean Philippe 07:18:05 M45 M 0
203 Souplet Olivier 07:18:34 M45 M 0
204 Repetto Jacques 07:18:35 M55 M 0
205 Guilbaud Denis 07:18:40 M45 M 0
206 Ritter Eric 07:19:42 M55 M 0
207 Trzan Philippe 07:19:45 M55 M 0
208 Bovis Sebastien 07:19:58 M35 M 0
209 Sambrotta Pierre 07:20:15 M35 M 0
210 Tribouley Nicod Lucia 07:20:42 W50 F 0
211 Reizer Mathieu 07:21:01 M35 Amadeus M 0
212 Garruchot Maxime 07:21:59 MU23 M 0
213 Mathoulin Gerald 07:22:34 M45 M 0
214 Bottreau David 07:23:25 M45 les Pieds Tanques la C... M 0
215 Remezkov Dmitrii 07:24:11 M40 M 0
216 Hormiere Pierre Yves 07:25:23 M45 M 0
217 Barat Julien 07:25:50 M35 M 0
218 Regeard Mathieu 07:26:50 M35 M 0
219 Regeard Julien 07:26:51 M35 M 0
220 Zachlevniy Celian 07:29:17 M35 Carla Lucio M 0
221 Giuliano Robert 07:29:17 M60 Soprobat M 0
222 Renault Veronique 07:30:13 W55 Asptt Argentan F 0
223 Hudelot Kenzo 07:31:26 M40 M 0
224 Nassikas Thalis 07:31:42 M23 M 0
225 Fornes Yvan 07:33:00 M40 Amadeus M 0
226 Lagalla Francois 07:34:14 M23 M 0
227 Taine Patrick 07:36:23 M60 M 0
228 Sanchez Thierry 07:36:24 M55 Assla M 0
229 Consavela Serge 07:36:24 M45 Soprobat M 0
230 Portella Jerome 07:36:45 M23 Maguelone Jogging M 0
231 Michaud Franck 07:37:26 M35 M 0
232 Druelle Francois 07:38:33 M23 M 0
233 Hoarau Jeremy 07:38:41 M23 M 0
234 Gentil Cedric 07:38:54 M40 M 0
235 Vanbiervliet Franck 07:39:17 M50 M 0
236 Lohez Jennifer 07:39:34 W35 Team GO Fast Armentier... F 0
237 Truc Mathieu 07:40:23 M23 M 0
238 Barbet Jean Charles 07:40:30 M50 Team Mickey M 0
239 Gallo Ludovic 07:40:30 M50 M 0
240 Grassin Thierry 07:40:39 M50 Thales Alenia Space M 0
241 Saussereau Franck 07:41:38 M45 M 0
242 Gil Antonio 07:41:38 M70 Falicoun Trail Plaisir M 0
243 Garcia Laurent 07:42:19 M50 M 0
244 Balthazard Virginie 07:42:39 W40 Thales Alenia Space F 0
245 Melki Farida 07:43:00 W55 Asptt Nice F 0
246 Moron Marybel 07:43:01 W45 F 0
247 Galzin Cyril 07:43:09 M45 M 0
248 Belausteguy Philippe 07:44:42 M50 Passpartout Traileurs ... M 0
249 Belausteguy Sabine 07:44:42 W45 Passpartout Traileurs ... F 0
250 Perraud Fabrice 07:45:13 M40 M 0
251 Retz Christophe 07:45:51 M45 Team Foulees Cannes Ma... M 0
252 Elomri Franck 07:47:09 M45 M 0
253 Fornier Yann 07:48:54 M23 Expleo M 0
254 Guyomard Nicolas 07:48:55 M40 M 0
255 Fossat Mylene 07:50:45 W45 Cyclosport Salleboeuf F 0
256 Garcia Alexis 07:51:15 M50 M 0
257 Lefebvre Jerome 07:51:16 M35 Sapeurs Pompiers de Ca... M 0
258 Gilli Christian 07:52:02 M65 M 0
259 Rupp Camille 07:53:12 W23 F 0
260 Rosenbaum Alex 07:53:14 M23 M 0
261 Delgado Julie 07:55:32 WU23 F 0
262 Falissard Bruno 07:55:42 M55 M 0
263 Laurrain Henri 07:55:51 M50 Amslf/Oxubii M 0
264 Maillet Bert Pascale 07:56:35 W55 Usson Sports Nature F 0
265 Martin Nadege 07:56:36 W45 Usson Sport Nature F 0
266 Charpentier Franck 07:58:04 M40 M 0
267 Tissandier Blandine 07:58:25 W35 F 0
268 Tissandier Pierre 07:58:26 M35 M 0
269 Besson Xavier 07:58:29 M23 M 0
270 Lakouiss Sonia 07:58:30 W23 F 0
271 Bocquet Nicolas 07:58:33 M23 M 0
272 Jehanno Angelina 07:59:41 W40 F 0
273 Jehanno Fabrice 07:59:42 M40 M 0
274 Estivant Thierry 08:00:35 M40 M 0
275 de Coninck Sebastien 08:01:02 M35 M 0
276 Delahaye Matthieu 08:01:56 M40 M 0
277 Renimel Bruno 08:02:14 M50 M 0
278 Lamotte Yann 08:06:55 M40 M 0
279 Gay Fanny 08:07:58 W35 F 0
280 Bittau Bruno 08:07:59 M35 M 0
281 Thomas Frederic 08:08:07 M50 M 0
282 Leger Lionel 08:10:46 M40 M 0
283 Fanton Charlotte 08:12:23 W45 F 0
284 Delbarre Michel 08:12:45 M65 USM Olivet M 0
285 Dalmazzone Nathalie 08:13:15 W50 Falicoun Trail Plaisir F 0
286 Bernardin Eric 08:15:38 M45 M 0
287 Kamel Denis 08:17:03 M50 Amsl M 0
288 Hatioueche Yasmina 08:17:25 W40 F 0
289 Derepas Thierry 08:19:13 M35 M 0
290 Chorin Frederic 08:19:40 M23 M 0
291 Chorin Thierry 08:19:41 M55 M 0
292 Darmyn Camille 08:22:41 W23 F 0
293 Carlier Julien 08:23:41 M35 M 0
294 Pareau Christophe 08:23:42 M50 M 0
295 Bollecker Jean Rene 08:25:37 MU23 M 0
296 Auclaire Jean 08:25:59 M60 M 0
297 Quemeneur Francois 08:28:44 M35 M 0
298 Rastel Michel 08:31:29 M60 M 0
299 Supiot Herve 08:31:35 M55 E2A M 0
300 Protch Clemence 08:31:59 W35 Laboratoires Arkopharma F 0
301 Bouziat Lorlyne 08:32:06 W45 Falicoun Trail Plaisir F 0
302 Messonnier Sylvie 08:39:05 W50 F 0
303 Gadoud Bruno 08:39:26 M55 M 0
304 Hodos Klaudia 08:42:49 W35 F 0
305 Brun Gilles 08:45:34 M50 Activ' Sports Antibes M 0
306 Wiencek Xavier 08:45:35 M40 Cavigal Nice Triatnlon M 0
307 Zeppenfeld Chris 08:45:49 W50 Chicken Runners F 0
308 Lara Gregory 08:45:57 M23 M 0
309 Hays Mathieu 08:45:58 M23 M 0
310 Raffray Sophie 08:47:01 W40 F 0
311 Domergue Dominique 08:48:10 W55 F 0
312 Michel Cedric 08:51:48 M40 M 0
313 Boucher Gregory 09:00:06 M23 M 0
314 Peru Emeline 09:03:51 W23 Nice Cote D'Azur Athle... F 0
315 Boulil Sabrina 09:03:52 W23 F 0
316 Aubanel Sebastien 09:06:35 M40 M 0
317 Giannini Philippe 09:08:39 M50 M 0
318 Gouverneur Celine 09:09:23 W45 F 0
319 Luxi Marie 09:09:23 W45 F 0
320 Justiniani Barbara 09:13:22 W50 F 0
321 Crepeaux Romain 09:23:29 M35 Romain Crepeaux M 0
322 Piganiol Bernard 09:27:31 M65 Val de Somme M 0
323 Pradelli Clara 09:34:18 WU23 Asoa F 0
324 Savart Geraldine 09:35:39 W35 F 0
325 Barberye Sylvia 09:40:28 W35 F 0
326 Alloo Vincent 09:47:11 M45 M 0
327 Brindejonc Didier 09:53:21 M50 M 0
328 Dubois Patrick 10:18:01 M60 M 0
329 Ruyssen Stephanie 10:24:58 W40 F 0
330 Ruff Denis 10:36:24 M65 M 0
331 Fiore Jean Pierre 11:55:19 M75 M 0


ReferencementCe site est listé dans la catégorie Sport : Sports extrêmes Dictionnaire
| Accueil | La Réunion  Vue du ciel | Météo | Cyclones | Volcan | Cirques de Mafate , Cilaos , Salazie | Photos Randonnées | Randonnées Réunion: Randos Espiègle , Courses montagne | Diagonale des Fous |  Marathon des Sables | Voyages Les stats du site | Fonds écran | Plan du site | Blog de runraid | Galerie photos Sport Réunion |